Time,TemperatureF,DewpointF,PressureIn,WindDirection,WindDirectionDegrees,WindSpeedMPH,WindSpeedGustMPH,Humidity,HourlyPrecipIn,Conditions,Clouds,dailyrainin,SolarRadiationWatts/m^2,SoftwareType,DateUTC
2013-07-31 00:22:00,65.0,65.0,-100.00,SW,226,3.0,5.0,100,0.00,,,0.00,0.000000,,2013-07-31 05:22:00,
2013-07-31 00:32:00,65.0,65.0,-100.00,SW,226,3.0,5.0,100,0.00,,,0.00,0.000000,,2013-07-31 05:32:00,
2013-07-31 00:42:00,65.0,65.0,-100.00,SW,226,3.0,5.0,100,0.00,,,0.00,0.000000,,2013-07-31 05:42:00,
2013-07-31 00:52:00,65.0,65.0,-100.00,SW,226,3.0,5.0,100,0.00,,,0.00,0.000000,,2013-07-31 05:52:00,
2013-07-31 01:22:00,64.0,64.0,-100.00,SSW,199,4.0,6.0,100,0.00,,,0.00,0.000000,,2013-07-31 06:22:00,
2013-07-31 01:32:00,64.0,64.0,-100.00,SSW,199,4.0,6.0,100,0.00,,,0.00,0.000000,,2013-07-31 06:32:00,
2013-07-31 01:43:00,64.0,64.0,-100.00,SSW,199,4.0,6.0,100,0.00,,,0.00,0.000000,,2013-07-31 06:43:00,
2013-07-31 01:53:00,64.0,64.0,-100.00,SSW,199,4.0,6.0,100,0.00,,,0.00,0.000000,,2013-07-31 06:53:00,
2013-07-31 02:22:00,64.0,64.0,-100.00,South,173,6.0,8.0,100,0.00,,,0.00,0.000000,,2013-07-31 07:22:00,
2013-07-31 02:32:00,64.0,64.0,-100.00,South,173,6.0,8.0,100,0.00,,,0.00,0.000000,,2013-07-31 07:32:00,
2013-07-31 02:43:00,64.0,64.0,-100.00,South,173,6.0,8.0,100,0.00,,,0.00,0.000000,,2013-07-31 07:43:00,
2013-07-31 02:52:00,64.0,64.0,-100.00,South,173,6.0,8.0,100,0.00,,,0.00,0.000000,,2013-07-31 07:52:00,
2013-07-31 03:22:00,63.0,63.0,-100.00,NNE,12,3.0,6.0,100,0.00,,,0.00,0.000000,,2013-07-31 08:22:00,
2013-07-31 03:32:00,63.0,63.0,-100.00,NNE,12,3.0,6.0,100,0.00,,,0.00,0.000000,,2013-07-31 08:32:00,
2013-07-31 03:42:00,63.0,63.0,-100.00,NNE,12,3.0,6.0,100,0.00,,,0.00,0.000000,,2013-07-31 08:42:00,
2013-07-31 03:53:00,63.0,63.0,-100.00,NNE,12,3.0,6.0,100,0.00,,,0.00,0.000000,,2013-07-31 08:53:00,
2013-07-31 04:22:00,65.0,65.0,-100.00,WNW,299,7.0,14.0,100,0.00,,,0.00,0.000000,,2013-07-31 09:22:00,
2013-07-31 04:32:00,65.0,65.0,-100.00,WNW,299,7.0,14.0,100,0.00,,,0.00,0.000000,,2013-07-31 09:32:00,
2013-07-31 04:43:00,65.0,65.0,-100.00,WNW,299,7.0,14.0,100,0.00,,,0.00,0.000000,,2013-07-31 09:43:00,
2013-07-31 04:52:00,65.0,65.0,-100.00,WNW,299,7.0,14.0,100,0.00,,,0.00,0.000000,,2013-07-31 09:52:00,
2013-07-31 05:22:00,64.0,64.0,-100.00,SSE,164,7.0,10.0,100,0.00,,,0.00,0.000000,,2013-07-31 10:22:00,
2013-07-31 05:32:00,64.0,64.0,-100.00,SSE,164,7.0,10.0,100,0.00,,,0.00,0.000000,,2013-07-31 10:32:00,
2013-07-31 05:44:00,64.0,64.0,-100.00,SSE,164,7.0,10.0,100,0.00,,,0.00,0.000000,,2013-07-31 10:44:00,
2013-07-31 05:52:00,64.0,64.0,-100.00,SSE,164,7.0,10.0,100,0.00,,,0.00,0.000000,,2013-07-31 10:52:00,
2013-07-31 06:22:00,63.0,63.0,-100.00,SE,127,6.0,8.0,100,0.00,,,0.00,0.000000,,2013-07-31 11:22:00,
2013-07-31 06:33:00,63.0,63.0,-100.00,SE,127,6.0,8.0,100,0.00,,,0.00,0.000000,,2013-07-31 11:33:00,
2013-07-31 06:43:00,63.0,63.0,-100.00,SE,127,6.0,8.0,100,0.00,,,0.00,0.000000,,2013-07-31 11:43:00,
2013-07-31 06:52:00,63.0,63.0,-100.00,SE,127,6.0,8.0,100,0.00,,,0.00,0.000000,,2013-07-31 11:52:00,
2013-07-31 07:22:00,60.0,60.0,-100.00,NNW,346,4.0,7.0,100,0.00,,,0.00,0.000000,,2013-07-31 12:22:00,
2013-07-31 07:33:00,60.0,60.0,-100.00,NNW,346,4.0,7.0,100,0.00,,,0.00,0.000000,,2013-07-31 12:33:00,
2013-07-31 07:43:00,60.0,60.0,-100.00,NNW,346,4.0,7.0,100,0.00,,,0.00,0.000000,,2013-07-31 12:43:00,
2013-07-31 07:52:00,60.0,60.0,-100.00,NNW,346,4.0,7.0,100,0.00,,,0.00,0.000000,,2013-07-31 12:52:00,
2013-07-31 08:33:00,65.0,65.0,-100.00,North,3,2.0,5.0,100,0.00,,,0.00,0.000000,,2013-07-31 13:33:00,
2013-07-31 08:43:00,65.0,65.0,-100.00,North,3,2.0,5.0,100,0.00,,,0.00,0.000000,,2013-07-31 13:43:00,
2013-07-31 08:53:00,65.0,65.0,-100.00,North,3,2.0,5.0,100,0.00,,,0.00,0.000000,,2013-07-31 13:53:00,
2013-07-31 09:22:00,70.0,70.0,-100.00,NE,56,4.0,6.0,100,0.00,,,0.00,0.000000,,2013-07-31 14:22:00,
2013-07-31 09:34:00,70.0,70.0,-100.00,NE,56,4.0,6.0,100,0.00,,,0.00,0.000000,,2013-07-31 14:34:00,
2013-07-31 09:43:00,70.0,70.0,-100.00,NE,56,4.0,6.0,100,0.00,,,0.00,0.000000,,2013-07-31 14:43:00,
2013-07-31 09:53:00,70.0,70.0,-100.00,NE,56,4.0,6.0,100,0.00,,,0.00,0.000000,,2013-07-31 14:53:00,
2013-07-31 10:22:00,71.0,69.0,-100.00,WNW,297,3.0,6.0,95,0.00,,,0.00,0.000000,,2013-07-31 15:22:00,
2013-07-31 10:33:00,71.0,69.0,-100.00,WNW,297,3.0,6.0,95,0.00,,,0.00,0.000000,,2013-07-31 15:33:00,
2013-07-31 10:43:00,71.0,69.0,-100.00,WNW,297,3.0,6.0,95,0.00,,,0.00,0.000000,,2013-07-31 15:43:00,
2013-07-31 10:52:00,71.0,69.0,-100.00,WNW,297,3.0,6.0,95,0.00,,,0.00,0.000000,,2013-07-31 15:52:00,
2013-07-31 11:22:00,76.0,72.0,-100.00,WNW,289,2.0,8.0,86,0.00,,,0.00,0.000000,,2013-07-31 16:22:00,
2013-07-31 11:33:00,76.0,72.0,-100.00,WNW,289,2.0,8.0,86,0.00,,,0.00,0.000000,,2013-07-31 16:33:00,
2013-07-31 11:44:00,76.0,72.0,-100.00,WNW,289,2.0,8.0,86,0.00,,,0.00,0.000000,,2013-07-31 16:44:00,
2013-07-31 11:52:00,76.0,72.0,-100.00,WNW,289,2.0,8.0,86,0.00,,,0.00,0.000000,,2013-07-31 16:52:00,
2013-07-31 12:22:00,79.0,70.0,-100.00,North,10,6.0,11.0,74,0.00,,,0.00,0.000000,,2013-07-31 17:22:00,
2013-07-31 12:33:00,79.0,70.0,-100.00,North,10,6.0,11.0,74,0.00,,,0.00,0.000000,,2013-07-31 17:33:00,
2013-07-31 12:43:00,79.0,70.0,-100.00,North,10,6.0,11.0,74,0.00,,,0.00,0.000000,,2013-07-31 17:43:00,
2013-07-31 12:53:00,79.0,70.0,-100.00,North,10,6.0,11.0,74,0.00,,,0.00,0.000000,,2013-07-31 17:53:00,
2013-07-31 13:22:00,80.0,67.0,-100.00,North,3,5.0,11.0,64,0.00,,,0.00,0.000000,,2013-07-31 18:22:00,
2013-07-31 13:32:00,80.0,67.0,-100.00,North,3,5.0,11.0,64,0.00,,,0.00,0.000000,,2013-07-31 18:32:00,
2013-07-31 13:43:00,80.0,67.0,-100.00,North,3,5.0,11.0,64,0.00,,,0.00,0.000000,,2013-07-31 18:43:00,
2013-07-31 13:52:00,80.0,67.0,-100.00,North,3,5.0,11.0,64,0.00,,,0.00,0.000000,,2013-07-31 18:52:00,
2013-07-31 14:22:00,82.0,67.0,-100.00,NW,304,5.0,12.0,60,0.00,,,0.00,0.000000,,2013-07-31 19:22:00,
2013-07-31 14:33:00,82.0,67.0,-100.00,NW,304,5.0,12.0,60,0.00,,,0.00,0.000000,,2013-07-31 19:33:00,
2013-07-31 14:43:00,82.0,67.0,-100.00,NW,304,5.0,12.0,60,0.00,,,0.00,0.000000,,2013-07-31 19:43:00,
2013-07-31 14:52:00,82.0,67.0,-100.00,NW,304,5.0,12.0,60,0.00,,,0.00,0.000000,,2013-07-31 19:52:00,
2013-07-31 15:22:00,83.0,64.0,-100.00,NNE,31,6.0,12.0,53,0.00,,,0.00,0.000000,,2013-07-31 20:22:00,
2013-07-31 15:32:00,83.0,64.0,-100.00,NNE,31,6.0,12.0,53,0.00,,,0.00,0.000000,,2013-07-31 20:32:00,
2013-07-31 15:43:00,83.0,64.0,-100.00,NNE,31,6.0,12.0,53,0.00,,,0.00,0.000000,,2013-07-31 20:43:00,
2013-07-31 15:52:00,83.0,64.0,-100.00,NNE,31,6.0,12.0,53,0.00,,,0.00,0.000000,,2013-07-31 20:52:00,
2013-07-31 16:22:00,83.0,63.0,-100.00,NE,44,6.0,13.0,51,0.00,,,0.00,0.000000,,2013-07-31 21:22:00,
2013-07-31 16:32:00,83.0,63.0,-100.00,NE,44,6.0,13.0,51,0.00,,,0.00,0.000000,,2013-07-31 21:32:00,
2013-07-31 16:43:00,83.0,63.0,-100.00,NE,44,6.0,13.0,51,0.00,,,0.00,0.000000,,2013-07-31 21:43:00,
2013-07-31 16:53:00,83.0,63.0,-100.00,NE,44,6.0,13.0,51,0.00,,,0.00,0.000000,,2013-07-31 21:53:00,
2013-07-31 17:22:00,83.0,65.0,-100.00,North,1,4.0,10.0,55,0.00,,,0.00,0.000000,,2013-07-31 22:22:00,
2013-07-31 17:33:00,83.0,65.0,-100.00,North,1,4.0,10.0,55,0.00,,,0.00,0.000000,,2013-07-31 22:33:00,
2013-07-31 17:43:00,83.0,65.0,-100.00,North,1,4.0,10.0,55,0.00,,,0.00,0.000000,,2013-07-31 22:43:00,
2013-07-31 17:53:00,83.0,65.0,-100.00,North,1,4.0,10.0,55,0.00,,,0.00,0.000000,,2013-07-31 22:53:00,
2013-07-31 18:22:00,81.0,66.0,-100.00,NNW,348,5.0,9.0,61,0.00,,,0.00,0.000000,,2013-07-31 23:22:00,
2013-07-31 18:32:00,81.0,66.0,-100.00,NNW,348,5.0,9.0,61,0.00,,,0.00,0.000000,,2013-07-31 23:32:00,
2013-07-31 18:42:00,81.0,66.0,-100.00,NNW,348,5.0,9.0,61,0.00,,,0.00,0.000000,,2013-07-31 23:42:00,
2013-07-31 18:52:00,81.0,66.0,-100.00,NNW,348,5.0,9.0,61,0.00,,,0.00,0.000000,,2013-07-31 23:52:00,
2013-07-31 19:22:00,81.0,66.0,-100.00,ENE,74,2.0,10.0,61,0.00,,,0.00,0.000000,,2013-08-01 00:22:00,
2013-07-31 19:32:00,81.0,66.0,-100.00,ENE,74,2.0,10.0,61,0.00,,,0.00,0.000000,,2013-08-01 00:32:00,
2013-07-31 19:43:00,81.0,66.0,-100.00,ENE,74,2.0,10.0,61,0.00,,,0.00,0.000000,,2013-08-01 00:43:00,
2013-07-31 19:52:00,81.0,66.0,-100.00,ENE,74,2.0,10.0,61,0.00,,,0.00,0.000000,,2013-08-01 00:52:00,
2013-07-31 20:22:00,79.0,67.0,-100.00,SE,127,4.0,7.0,66,0.00,,,0.00,0.000000,,2013-08-01 01:22:00,
2013-07-31 20:33:00,79.0,67.0,-100.00,SE,127,4.0,7.0,66,0.00,,,0.00,0.000000,,2013-08-01 01:33:00,
2013-07-31 20:43:00,79.0,67.0,-100.00,SE,127,4.0,7.0,66,0.00,,,0.00,0.000000,,2013-08-01 01:43:00,
2013-07-31 20:53:00,79.0,67.0,-100.00,SE,127,4.0,7.0,66,0.00,,,0.00,0.000000,,2013-08-01 01:53:00,
2013-07-31 21:32:00,73.0,69.0,-100.00,East,95,3.0,4.0,88,0.00,,,0.00,0.000000,,2013-08-01 02:32:00,
2013-07-31 21:43:00,73.0,69.0,-100.00,East,95,3.0,4.0,88,0.00,,,0.00,0.000000,,2013-08-01 02:43:00,
2013-07-31 21:52:00,73.0,69.0,-100.00,East,95,3.0,4.0,88,0.00,,,0.00,0.000000,,2013-08-01 02:52:00,
2013-07-31 22:53:00,68.0,68.0,-100.00,NNW,342,0.0,5.0,100,0.00,,,0.00,0.000000,,2013-08-01 03:53:00,